This is the latest recevied weather packets stored in our database for station/object CE4JVU-10. If no packets are shown the sender has not sent any weather packets the latest 10 day(s).
| Time | Temp. | Humidity | Pressure | Rain* | Wind** | Luminosity | Snow |
|---|---|---|---|---|---|---|---|
| 1788294263 | 23.33° C | 35% | 982 hPa | - | - | - | - |
| 1788293367 | 23.89° C | 34% | 982 hPa | - | - | - | - |
| 1788292467 | 23.89° C | 36% | 981.9 hPa | - | - | - | - |
| 1788290668 | 24.44° C | 48% | 982.1 hPa | - | - | - | - |
| 1788289767 | 23.89° C | 50% | 982.1 hPa | - | - | - | - |
| 1788288867 | 23.89° C | 49% | 982.4 hPa | - | - | - | - |
| 1788287966 | 23.33° C | 48% | 982.5 hPa | - | - | - | - |
| 1788287066 | 22.78° C | 49% | 982.7 hPa | - | - | - | - |
| 1788286166 | 22.78° C | 47% | 983.1 hPa | - | - | - | - |
| 1788285266 | 22.78° C | 45% | 983.4 hPa | - | - | - | - |
| 1788284366 | 22.22° C | 42% | 983.9 hPa | - | - | - | - |
| 1788283466 | 21.67° C | 40% | 984 hPa | - | - | - | - |
| 1788282566 | 21.11° C | 43% | 984.2 hPa | - | - | - | - |
| 1788280766 | 20° C | 45% | 984.8 hPa | - | - | - | - |
| 1788279863 | 20° C | 45% | 985.2 hPa | - | - | - | - |
| 1788278963 | 19.44° C | 48% | 985.5 hPa | - | - | - | - |
| 1788278062 | 19.44° C | 48% | 985.8 hPa | - | - | - | - |
| 1788277162 | 19.44° C | 51% | 985.8 hPa | - | - | - | - |
| 1788276262 | 18.89° C | 49% | 986 hPa | - | - | - | - |
| 1788275362 | 18.89° C | 51% | 986.1 hPa | - | - | - | - |
| 1788273562 | 18.33° C | 53% | 986.2 hPa | - | - | - | - |
| 1788272662 | 17.78° C | 52% | 986.3 hPa | - | - | - | - |
| 1788271765 | 17.78° C | 53% | 986.3 hPa | - | - | - | - |
| 1788269965 | 17.78° C | 54% | 986.5 hPa | - | - | - | - |
| 1788269065 | 18.33° C | 56% | 986.5 hPa | - | - | - | - |
* Rain since midnight (hover to see other rain measurements)
** Current wind speed in m/s (hover to see current wind gust speed)